Stations météo

réclame
Mon MeteoGroup
Moron de la Frontera, Espagne (8397): Température de l'air & dewpoint: 14.06.2018 09:00:00 - 20.06.2018 09:00:00 (CEST)Moron de la Frontera, Espagne (8397): Vitesse du vent: 14.06.2018 09:00:00 - 20.06.2018 09:00:00 (CEST)Moron de la Frontera, Espagne (8397): Direction du vent: 14.06.2018 09:00:00 - 20.06.2018 09:00:00 (CEST)Moron de la Frontera, Espagne (8397): reduced air pressure: 14.06.2018 09:00:00 - 20.06.2018 09:00:00 (CEST)Moron de la Frontera, Espagne (8397): visibility: 14.06.2018 09:00:00 - 20.06.2018 09:00:00 (CEST)
Date & Time tt [°C] td [°C] ff [km/h] ff [knt] dd ppp [hPa] vv [km]
20.06.2018 09:00:00 - - - - - - -
20.06.2018 08:00:00 18,0 13,7 5 3 SSW 1016,8 20
20.06.2018 07:00:00 - - - - - - -
20.06.2018 06:00:00 - - - - - - -
20.06.2018 05:00:00 19,7 12,5 0 0 N 1016,0 25
20.06.2018 04:00:00 - - - - - - -
20.06.2018 03:00:00 - - - - - - -
20.06.2018 02:00:00 22,1 10,6 4 2 WSW 1016,1 25
20.06.2018 01:00:00 - - - - - - -
20.06.2018 00:00:00 - - - - - - -
19.06.2018 23:00:00 26,1 11,8 0 0 N 1015,4 25
19.06.2018 22:00:00 - - - - - - -
19.06.2018 21:00:00 - - - - - - -
19.06.2018 20:00:00 33,2 14,3 11 6 SW 1013,8 25
19.06.2018 19:00:00 - - - - - - -
19.06.2018 18:00:00 - - - - - - -
19.06.2018 17:00:00 35,3 15,1 5 3 SSW 1014,2 25
19.06.2018 16:00:00 - - - - - - -
19.06.2018 15:00:00 - - - - - - -
19.06.2018 14:00:00 32,7 15,2 5 3 W 1016,4 25
19.06.2018 13:00:00 - - - - - - -
19.06.2018 12:00:00 - - - - - - -
19.06.2018 11:00:00 27,0 15,4 4 2 N 1017,6 20
19.06.2018 10:00:00 - - - - - - -
19.06.2018 09:00:00 - - - - - - -
19.06.2018 08:00:00 18,6 16,6 4 2 ENE 1018,1 10
19.06.2018 07:00:00 - - - - - - -
19.06.2018 06:00:00 - - - - - - -
19.06.2018 05:00:00 18,5 16,3 2 1 S 1017,7 10
19.06.2018 04:00:00 - - - - - - -
19.06.2018 03:00:00 - - - - - - -
19.06.2018 02:00:00 19,5 16,7 8 4 SSW 1018,2 10
19.06.2018 01:00:00 - - - - - - -
19.06.2018 00:00:00 - - - - - - -
18.06.2018 23:00:00 23,5 17,9 4 2 NW 1017,1 12
18.06.2018 22:00:00 - - - - - - -
18.06.2018 21:00:00 - - - - - - -
18.06.2018 20:00:00 31,3 19,0 4 2 W 1014,7 15
18.06.2018 19:00:00 - - - - - - -
18.06.2018 18:00:00 - - - - - - -
18.06.2018 17:00:00 37,5 15,9 8 4 SSE 1014,0 20
18.06.2018 16:00:00 - - - - - - -
18.06.2018 15:00:00 - - - - - - -
18.06.2018 14:00:00 36,3 16,5 2 1 N 1015,2 25
18.06.2018 13:00:00 - - - - - - -
18.06.2018 12:00:00 - - - - - - -
18.06.2018 11:00:00 30,1 15,0 5 3 NE 1016,9 20
18.06.2018 10:00:00 - - - - - - -
18.06.2018 09:00:00 - - - - - - -
18.06.2018 08:00:00 20,4 15,0 5 3 E 1017,1 20
18.06.2018 07:00:00 - - - - - - -
18.06.2018 06:00:00 - - - - - - -
18.06.2018 05:00:00 20,8 15,4 0 0 N 1017,1 25
18.06.2018 04:00:00 - - - - - - -
18.06.2018 03:00:00 - - - - - - -
18.06.2018 02:00:00 22,9 16,0 8 4 WSW 1017,6 25
18.06.2018 01:00:00 - - - - - - -
18.06.2018 00:00:00 - - - - - - -
17.06.2018 23:00:00 26,9 14,0 5 3 WSW 1017,1 25
17.06.2018 22:00:00 - - - - - - -
17.06.2018 21:00:00 - - - - - - -
17.06.2018 20:00:00 35,0 16,3 8 4 W 1015,0 25
17.06.2018 19:00:00 - - - - - - -
17.06.2018 18:00:00 - - - - - - -
17.06.2018 17:00:00 36,7 16,3 5 3 NW 1015,2 25
17.06.2018 16:00:00 - - - - - - -
17.06.2018 15:00:00 - - - - - - -
17.06.2018 14:00:00 32,4 15,4 5 3 N 1016,5 20
17.06.2018 13:00:00 - - - - - - -
17.06.2018 12:00:00 - - - - - - -
17.06.2018 11:00:00 26,5 13,9 8 4 NNE 1017,2 20
17.06.2018 10:00:00 - - - - - - -
17.06.2018 09:00:00 - - - - - - -
17.06.2018 08:00:00 18,6 14,9 4 2 E 1016,6 30
17.06.2018 07:00:00 - - - - - - -
17.06.2018 06:00:00 - - - - - - -
17.06.2018 05:00:00 17,1 13,8 5 3 S 1015,8 25
17.06.2018 04:00:00 - - - - - - -
17.06.2018 03:00:00 - - - - - - -
17.06.2018 02:00:00 18,8 13,9 5 3 SSW 1015,1 25
17.06.2018 01:00:00 - - - - - - -
17.06.2018 00:00:00 - - - - - - -
16.06.2018 23:00:00 24,0 13,8 8 4 WSW 1014,0 25
16.06.2018 22:00:00 - - - - - - -
16.06.2018 21:00:00 - - - - - - -
16.06.2018 20:00:00 29,1 15,2 16 9 WSW 1012,3 30
16.06.2018 19:00:00 - - - - - - -
16.06.2018 18:00:00 - - - - - - -
16.06.2018 17:00:00 34,1 16,9 5 3 W 1011,8 30
16.06.2018 16:00:00 - - - - - - -
16.06.2018 15:00:00 - - - - - - -
16.06.2018 14:00:00 31,0 16,2 4 2 W 1012,9 30
16.06.2018 13:00:00 - - - - - - -
16.06.2018 12:00:00 - - - - - - -
16.06.2018 11:00:00 27,2 15,9 2 1 N 1013,5 30
16.06.2018 10:00:00 - - - - - - -
16.06.2018 09:00:00 - - - - - - -
16.06.2018 08:00:00 18,5 14,8 0 0 N 1013,0 15
16.06.2018 07:00:00 - - - - - - -
16.06.2018 06:00:00 - - - - - - -
16.06.2018 05:00:00 18,1 13,8 5 3 SW 1012,1 20
16.06.2018 04:00:00 - - - - - - -
16.06.2018 03:00:00 - - - - - - -
16.06.2018 02:00:00 19,1 13,7 8 4 SSW 1012,8 20
16.06.2018 01:00:00 - - - - - - -
16.06.2018 00:00:00 - - - - - - -
15.06.2018 23:00:00 22,6 15,7 11 6 WSW 1012,6 20
15.06.2018 22:00:00 - - - - - - -
15.06.2018 21:00:00 - - - - - - -
15.06.2018 20:00:00 32,9 13,0 8 4 WSW 1011,1 25
15.06.2018 19:00:00 - - - - - - -
15.06.2018 18:00:00 - - - - - - -
15.06.2018 17:00:00 33,4 14,0 4 2 WNW 1012,1 25
15.06.2018 16:00:00 - - - - - - -
15.06.2018 15:00:00 - - - - - - -
15.06.2018 14:00:00 31,1 14,3 8 4 W 1013,7 20
15.06.2018 13:00:00 - - - - - - -
15.06.2018 12:00:00 - - - - - - -
15.06.2018 11:00:00 26,6 14,0 5 3 N 1014,8 20
15.06.2018 10:00:00 - - - - - - -
15.06.2018 09:00:00 - - - - - - -
15.06.2018 08:00:00 16,0 12,0 4 2 SSE 1014,1 25
15.06.2018 07:00:00 - - - - - - -
15.06.2018 06:00:00 - - - - - - -
15.06.2018 05:00:00 17,1 11,8 0 0 N 1013,8 20
15.06.2018 04:00:00 - - - - - - -
15.06.2018 03:00:00 - - - - - - -
15.06.2018 02:00:00 18,3 11,8 8 4 SSW 1014,3 20
15.06.2018 01:00:00 - - - - - - -
15.06.2018 00:00:00 - - - - - - -
14.06.2018 23:00:00 21,3 13,2 5 3 SW 1014,4 20
14.06.2018 22:00:00 - - - - - - -
14.06.2018 21:00:00 - - - - - - -
14.06.2018 20:00:00 29,4 13,2 9 5 W 1012,5 25
14.06.2018 19:00:00 - - - - - - -
14.06.2018 18:00:00 - - - - - - -
14.06.2018 17:00:00 30,8 12,2 5 3 W 1013,1 25
14.06.2018 16:00:00 - - - - - - -
14.06.2018 15:00:00 - - - - - - -
14.06.2018 14:00:00 29,1 13,7 5 3 W 1014,6 20
14.06.2018 13:00:00 - - - - - - -
14.06.2018 12:00:00 - - - - - - -
14.06.2018 11:00:00 23,2 15,0 0 0 N 1015,3 20
14.06.2018 10:00:00 - - - - - - -
14.06.2018 09:00:00 - - - - - - -

tt = Température de l'air
td = dewpoint
ff = Vitesse du vent
dd = Direction du vent
ppp = reduced air pressure
vv = visibility

stations d'obs. à proximité